Rocky Mtn House, Alberta

4:36 AM MST on December 12, 2017 (GMT -0700)
Rocky Mtn House

Weather History for CWRM - January, 2013

Change the Weather History Date:

Thursday, January 17, 2013

  Actual Average Record
Temperature  
Mean Temperature 32 °F -  
Max Temperature 47 °F - - ()
Min Temperature 16 °F - - ()
Degree Days  
Heating Degree Days 34    
Moisture  
Dew Point 21 °F    
Average Humidity 68    
Maximum Humidity 92    
Minimum Humidity 22    
Precipitation  
Precipitation 0.00 in - - ()
Sea Level Pressure  
Sea Level Pressure 29.97 in    
Wind  
Wind Speed 4 mph ()    
Max Wind Speed 18 mph    
Max Gust Speed 24 mph    
T = Trace of Precipitation, MM = Missing Value Source: Averaged Metar Reports

Daily Weather History Graph

Daily Weather History Graph

Search for Another Location

Airport or City:

Trip Planner

Search our weather history database for the weather conditions in past years. The results will help you decide how hot, cold, wet, or windy it might be!

Date:

Astronomy

Jan. 17, 2013 Rise Set
Actual Time 8:40 AM MST 4:59 PM MST
Civil Twilight 8:01 AM MST 5:39 PM MST
Nautical Twilight 7:18 AM MST 6:21 PM MST
Astronomical Twilight 6:37 AM MST 7:02 PM MST
Moon 10:51 AM MST (1/17) No Moon Set
Length of Visible Light 9h 38m
Length of Day
8h 19m
Waxing Crescent, 38% of the Moon is Illuminated
Jan 17
Waxing Crescent
Jan 18
First Quarter
Jan 26
Full
Feb 3
Last Quarter
Feb 10
New

Hourly Weather History & Observations

Time (MST) Temp. Windchill Dew Point Humidity Pressure Visibility Wind Dir Wind Speed Gust Speed Precip Events Conditions
12:00 AM 28.0 °F 24.2 °F 25.2 °F 89% 30.22 in - SE 3.5 mph - N/A   Unknown
1:00 AM 26.4 °F 20.9 °F 24.3 °F 92% 30.21 in - SE 4.6 mph - N/A   Unknown
2:00 AM 24 °F - 22 °F 91% 30.18 in - ESE 4.6 mph - -  
2:00 AM 24.4 °F 18.6 °F 22.5 °F 92% 30.18 in - ESE 4.6 mph - N/A   Unknown
3:00 AM 21.4 °F 15.1 °F 19.2 °F 91% 30.17 in - SE 4.6 mph - N/A   Unknown
4:00 AM 20.3 °F - 17.8 °F 90% 30.15 in - SE 2.3 mph - N/A   Unknown
5:00 AM 19 °F - 17 °F 86% 30.13 in - SE 3.5 mph - -  
5:00 AM 18.9 °F 13.7 °F 16.7 °F 91% 30.13 in - SE 3.5 mph - N/A   Unknown
6:00 AM 22.6 °F 18.0 °F 20.7 °F 92% 30.08 in - ESE 3.5 mph - N/A   Unknown
7:00 AM 23.4 °F - 20.8 °F 90% 30.08 in - ESE 2.3 mph - N/A   Unknown
8:00 AM 23 °F - 20 °F 86% 30.07 in - ENE 1.2 mph - -  
8:00 AM 22.8 °F - 20.5 °F 91% 30.07 in - ENE 1.2 mph - N/A   Unknown
9:00 AM 21.6 °F - 19.0 °F 90% 30.06 in - SSE 2.3 mph - N/A   Unknown
10:00 AM 23.9 °F - 21.2 °F 89% 30.04 in - North 1.2 mph - N/A   Unknown
11:00 AM 26 °F - 22 °F 76% 30.00 in - East 3.5 mph - -  
11:00 AM 25.5 °F 21.3 °F 21.6 °F 85% 30.00 in - East 3.5 mph - N/A   Unknown
12:00 PM 26.4 °F 22.4 °F 21.7 °F 82% 29.96 in - ESE 3.5 mph - N/A   Unknown
1:00 PM 29.7 °F - 23.4 °F 77% 29.92 in - East 2.3 mph - N/A   Unknown
2:00 PM 44 °F - 23 °F 31% 29.85 in - WSW 6.9 mph - -  
2:00 PM 43.9 °F 39.9 °F 23.2 °F 44% 29.85 in - WSW 6.9 mph - N/A   Unknown
3:00 PM 46.2 °F 41.2 °F 22.3 °F 39% 29.81 in - West 10.4 mph 17.3 mph N/A   Unknown
4:00 PM 45.7 °F 39.8 °F 22.3 °F 40% 29.81 in - West 12.7 mph - N/A   Unknown
5:00 PM 46 °F - 20 °F 22% 29.81 in - West 18.4 mph - -  
5:00 PM 46.4 °F 39.2 °F 19.6 °F 34% 29.81 in - West 18.4 mph 24.2 mph N/A   Unknown
6:00 PM 43.7 °F 37.3 °F 20.5 °F 40% 29.82 in - West 12.7 mph - N/A   Unknown
7:00 PM 40.8 °F 35.0 °F 20.3 °F 44% 29.82 in - West 9.2 mph - N/A   Unknown
8:00 PM 39 °F - 21 °F 35% 29.83 in - West 8.1 mph - -  
8:00 PM 38.7 °F 32.9 °F 20.8 °F 49% 29.83 in - West 8.1 mph - N/A   Unknown
9:00 PM 35.6 °F - 20.8 °F 55% 29.82 in - WSW 2.3 mph - N/A   Unknown
10:00 PM 28.8 °F 25.0 °F 18.9 °F 67% 29.82 in - SW 3.5 mph - N/A   Unknown
11:00 PM 31 °F - 18 °F 44% 29.81 in - West 4.6 mph - -  
11:00 PM 31.3 °F 26.6 °F 17.6 °F 57% 29.81 in - West 4.6 mph - N/A   Unknown